DRAGON CRS-14 (43267 NORAD) Tracking and Keplerian Element Data

This shows tracking and keplerian element data for the satellite.

Feedback or suggestion? Click here.




ElementValue
Catalog43267
NameDRAGON CRS-14
Epoch Orbit496
Epoch Day124.75998068
Epoch Year2018
RAAN235.1983
Inclination51.6425
Eccentricity0.0003395
Argument of Perigee49.157
Mean Anonmoly107.8277
Mean Motion15.54200133
Decay Rate1.739E-05
L11 43267U 18032A 18124.75998068 .00001739 00000-0 33432-4 0 9993
L22 43267 51.6425 235.1983 0003395 49.1570 107.8277 15.54200133 4969



Live tracking and technical data element details for DRAGON CRS-14 (NORAD 43267). DRAGON CRS-14 can be tracked NOW for your location showing map with azimuth and elevation plus other details from your city location.







IsCatalogInMostPopularTable: catalog: 43267, numindb: 564
Update: records affected: 1



GetName: 43267 DRAGON CRS-14

Hit Count: updated at: Thu, 15 May 2025 09:26:20 GMT